When you browse on this site, cookies collect data to enhance your experience and personalize the content and advertising you see.
Visit our Privacy Policy to learn more. By continuing to use the site, you agree to this use of cookies and data.

Stündliche Wetter Valevka

Heute, 6 Juli, Montag

Zeit Temperatur Niederschläge Wind Luftdruck Luftfeuchtigkeit
00:00 +19°C° 0 mm 3 m/S 739 mmHg 94%
01:00 +19°C° 0 mm 3 m/S 738 mmHg 94%
02:00 +19°C° 0 mm 4 m/S 738 mmHg 95%
03:00 +19°C° 0.1 mm 4 m/S 738 mmHg 95%
04:00 +19°C° 0.1 mm 4 m/S 737 mmHg 95%
05:00 +19°C° 0.1 mm 4 m/S 737 mmHg 95%
06:00 +20°C° 0 mm 4 m/S 737 mmHg 93%
07:00 +20°C° 0 mm 4 m/S 737 mmHg 91%
08:00 +21°C° 0 mm 4 m/S 737 mmHg 90%
09:00 +22°C° 0.4 mm 5 m/S 737 mmHg 86%
10:00 +25°C° 0.4 mm 5 m/S 737 mmHg 82%
11:00 +26°C° 0.4 mm 5 m/S 737 mmHg 77%
12:00 +26°C° 1 mm 5 m/S 736 mmHg 78%
13:00 +26°C° 1 mm 5 m/S 736 mmHg 78%
14:00 +26°C° 1 mm 5 m/S 736 mmHg 78%
15:00 +26°C° 1.4 mm 4 m/S 736 mmHg 80%
16:00 +26°C° 1.4 mm 4 m/S 735 mmHg 82%
17:00 +25°C° 1.4 mm 3 m/S 735 mmHg 84%
18:00 +24°C° 0.6 mm 3 m/S 735 mmHg 86%
19:00 +22°C° 0.6 mm 3 m/S 735 mmHg 88%
20:00 +21°C° 0.6 mm 3 m/S 735 mmHg 90%
21:00 +20°C° 0.1 mm 3 m/S 735 mmHg 91%
22:00 +19°C° 0.1 mm 3 m/S 736 mmHg 91%
23:00 +18°C° 0.1 mm 4 m/S 736 mmHg 91%

Morgen, 7 Juli, Dienstag

Zeit Temperatur Niederschläge Wind Luftdruck Luftfeuchtigkeit
00:00 +17°C° 0.2 mm 4 m/S 736 mmHg 93%
01:00 +17°C° 0.2 mm 3 m/S 736 mmHg 94%
02:00 +16°C° 0.2 mm 3 m/S 736 mmHg 96%
03:00 +14°C° 0 mm 3 m/S 737 mmHg 95%
04:00 +14°C° 0 mm 3 m/S 737 mmHg 94%
05:00 +13°C° 0 mm 3 m/S 737 mmHg 93%
06:00 +13°C° 0.1 mm 3 m/S 738 mmHg 91%
07:00 +13°C° 0.1 mm 4 m/S 738 mmHg 89%
08:00 +14°C° 0.1 mm 4 m/S 738 mmHg 88%
09:00 +14°C° 0.1 mm 4 m/S 739 mmHg 85%
10:00 +16°C° 0.1 mm 3 m/S 739 mmHg 82%
11:00 +17°C° 0.1 mm 2 m/S 739 mmHg 79%
12:00 +17°C° 0.6 mm 3 m/S 739 mmHg 80%
13:00 +17°C° 0.6 mm 3 m/S 739 mmHg 80%
14:00 +17°C° 0.6 mm 3 m/S 739 mmHg 80%
15:00 +17°C° 0.3 mm 3 m/S 739 mmHg 80%
16:00 +17°C° 0.3 mm 4 m/S 739 mmHg 79%
17:00 +17°C° 0.3 mm 4 m/S 740 mmHg 78%
18:00 +15°C° 0.1 mm 4 m/S 740 mmHg 80%
19:00 +14°C° 0.1 mm 4 m/S 739 mmHg 83%
20:00 +13°C° 0.1 mm 4 m/S 739 mmHg 85%
21:00 +12°C° 0 mm 3 m/S 740 mmHg 87%
22:00 +11°C° 0 mm 3 m/S 740 mmHg 88%
23:00 +10°C° 0 mm 3 m/S 741 mmHg 90%

übermorgen, 8 Juli, Mittwoch

Zeit Temperatur Niederschläge Wind Luftdruck Luftfeuchtigkeit
00:00 +9°C° 0 mm 3 m/S 740 mmHg 92%
01:00 +9°C° 0 mm 3 m/S 740 mmHg 93%
02:00 +8°C° 0 mm 3 m/S 740 mmHg 95%
03:00 +8°C° 0 mm 3 m/S 740 mmHg 95%
04:00 +8°C° 0 mm 3 m/S 741 mmHg 95%
05:00 +8°C° 0 mm 3 m/S 741 mmHg 95%
06:00 +10°C° 0 mm 3 m/S 741 mmHg 90%
07:00 +12°C° 0 mm 3 m/S 741 mmHg 84%
08:00 +13°C° 0 mm 3 m/S 741 mmHg 78%
09:00 +15°C° 0 mm 4 m/S 741 mmHg 74%
10:00 +17°C° 0 mm 4 m/S 741 mmHg 70%
11:00 +17°C° 0 mm 5 m/S 741 mmHg 65%
12:00 +17°C° 0 mm 5 m/S 741 mmHg 64%
13:00 +19°C° 0 mm 5 m/S 741 mmHg 63%
14:00 +19°C° 0 mm 5 m/S 741 mmHg 63%
15:00 +18°C° 0.2 mm 4 m/S 741 mmHg 68%
16:00 +18°C° 0.2 mm 4 m/S 741 mmHg 73%
17:00 +17°C° 0.2 mm 4 m/S 741 mmHg 78%
18:00 +15°C° 0.5 mm 4 m/S 741 mmHg 84%
19:00 +13°C° 0.5 mm 3 m/S 741 mmHg 90%
20:00 +12°C° 0.5 mm 3 m/S 741 mmHg 96%
21:00 +11°C° 0.1 mm 3 m/S 741 mmHg 96%
22:00 +11°C° 0.1 mm 3 m/S 741 mmHg 96%
23:00 +11°C° 0.1 mm 3 m/S 741 mmHg 97%

9 Juli, Donnerstag

Zeit Temperatur Niederschläge Wind Luftdruck Luftfeuchtigkeit
00:00 +11°C° 0 mm 3 m/S 742 mmHg 96%
01:00 +11°C° 0 mm 3 m/S 742 mmHg 96%
02:00 +10°C° 0 mm 3 m/S 742 mmHg 96%
03:00 +10°C° 0 mm 3 m/S 742 mmHg 96%
04:00 +10°C° 0 mm 3 m/S 742 mmHg 97%
05:00 +10°C° 0 mm 3 m/S 743 mmHg 97%
06:00 +11°C° 0 mm 3 m/S 743 mmHg 93%
07:00 +12°C° 0 mm 3 m/S 743 mmHg 90%
08:00 +14°C° 0 mm 2 m/S 744 mmHg 87%
09:00 +14°C° 0.1 mm 3 m/S 744 mmHg 82%
10:00 +16°C° 0.1 mm 3 m/S 744 mmHg 77%
11:00 +17°C° 0.1 mm 3 m/S 744 mmHg 72%
12:00 +18°C° 0.2 mm 4 m/S 744 mmHg 69%
13:00 +18°C° 0.2 mm 4 m/S 744 mmHg 66%
14:00 +19°C° 0.2 mm 5 m/S 744 mmHg 63%
15:00 +19°C° 0 mm 4 m/S 744 mmHg 64%
16:00 +19°C° 0 mm 4 m/S 744 mmHg 65%
17:00 +19°C° 0 mm 4 m/S 744 mmHg 66%
18:00 +18°C° 0 mm 3 m/S 744 mmHg 71%
19:00 +16°C° 0 mm 3 m/S 744 mmHg 77%
20:00 +15°C° 0 mm 2 m/S 744 mmHg 83%
21:00 +14°C° 0 mm 2 m/S 745 mmHg 86%
22:00 +13°C° 0 mm 2 m/S 745 mmHg 88%
23:00 +12°C° 0 mm 2 m/S 745 mmHg 90%

10 Juli, Freitag

Zeit Temperatur Niederschläge Wind Luftdruck Luftfeuchtigkeit
00:00 +12°C° 0 mm 1 m/S 745 mmHg 90%
01:00 +11°C° 0 mm 1 m/S 745 mmHg 90%
02:00 +11°C° 0 mm 1 m/S 745 mmHg 90%
03:00 +11°C° 0 mm 1 m/S 745 mmHg 89%
04:00 +11°C° 0 mm 1 m/S 745 mmHg 89%
05:00 +11°C° 0 mm 1 m/S 745 mmHg 89%
06:00 +13°C° 0 mm 1 m/S 745 mmHg 85%
07:00 +15°C° 0 mm 2 m/S 745 mmHg 81%
08:00 +17°C° 0 mm 2 m/S 745 mmHg 77%
09:00 +18°C° 0 mm 3 m/S 745 mmHg 73%
10:00 +19°C° 0 mm 3 m/S 745 mmHg 68%
11:00 +20°C° 0 mm 4 m/S 744 mmHg 64%
12:00 +21°C° 0 mm 4 m/S 744 mmHg 63%
13:00 +21°C° 0 mm 4 m/S 743 mmHg 62%
14:00 +22°C° 0 mm 5 m/S 743 mmHg 62%
15:00 +22°C° 0 mm 5 m/S 742 mmHg 65%
16:00 +22°C° 0 mm 4 m/S 742 mmHg 68%
17:00 +22°C° 0 mm 4 m/S 741 mmHg 72%
18:00 +21°C° 0 mm 5 m/S 741 mmHg 75%
19:00 +20°C° 0 mm 5 m/S 740 mmHg 79%
20:00 +19°C° 0 mm 5 m/S 740 mmHg 83%
21:00 +19°C° 1.4 mm 5 m/S 739 mmHg 87%
22:00 +19°C° 1.4 mm 5 m/S 739 mmHg 91%
23:00 +17°C° 1.4 mm 5 m/S 739 mmHg 95%

11 Juli, Samstag

Zeit Temperatur Niederschläge Wind Luftdruck Luftfeuchtigkeit
00:00 +17°C° 1.4 mm 5 m/S 739 mmHg 96%
01:00 +18°C° 1.4 mm 4 m/S 739 mmHg 96%
02:00 +18°C° 1.4 mm 4 m/S 739 mmHg 96%
03:00 +15°C° 0 mm 4 m/S 740 mmHg 95%
04:00 +14°C° 0 mm 4 m/S 740 mmHg 94%
05:00 +12°C° 0 mm 3 m/S 741 mmHg 93%
06:00 +13°C° 0 mm 4 m/S 741 mmHg 87%
07:00 +13°C° 0 mm 5 m/S 741 mmHg 81%
08:00 +14°C° 0 mm 6 m/S 742 mmHg 75%
09:00 +15°C° 0 mm 7 m/S 742 mmHg 72%
10:00 +16°C° 0 mm 7 m/S 742 mmHg 68%
11:00 +16°C° 0 mm 7 m/S 742 mmHg 64%
12:00 +16°C° 0 mm 7 m/S 742 mmHg 65%
13:00 +17°C° 0 mm 7 m/S 742 mmHg 65%
14:00 +17°C° 0 mm 7 m/S 743 mmHg 66%
15:00 +17°C° 0 mm 6 m/S 743 mmHg 67%
16:00 +17°C° 0 mm 6 m/S 743 mmHg 68%
17:00 +17°C° 0 mm 6 m/S 743 mmHg 70%
18:00 +15°C° 0 mm 6 m/S 743 mmHg 72%
19:00 +14°C° 0 mm 5 m/S 743 mmHg 75%
20:00 +13°C° 0 mm 5 m/S 743 mmHg 77%
21:00 +12°C° 0 mm 5 m/S 743 mmHg 76%
22:00 +10°C° 0 mm 5 m/S 743 mmHg 75%
23:00 +9°C° 0 mm 5 m/S 743 mmHg 74%
Mehr zeigen